Time,TemperatureF,DewpointF,PressureIn,WindDirection,WindDirectionDegrees,WindSpeedMPH,WindSpeedGustMPH,Humidity,HourlyPrecipIn,Conditions,Clouds,dailyrainin,SolarRadiationWatts/m^2,SoftwareType,DateUTC
2013-07-24 00:22:00,65.0,65.0,-100.00,NE,48,5.0,6.0,100,0.00,,,0.61,0.000000,,2013-07-24 05:22:00,
2013-07-24 00:32:00,65.0,65.0,-100.00,NE,48,5.0,6.0,100,0.00,,,0.61,0.000000,,2013-07-24 05:32:00,
2013-07-24 00:43:00,65.0,65.0,-100.00,NE,48,5.0,6.0,100,0.00,,,0.61,0.000000,,2013-07-24 05:43:00,
2013-07-24 00:52:00,65.0,65.0,-100.00,NE,48,5.0,6.0,100,0.00,,,0.61,0.000000,,2013-07-24 05:52:00,
2013-07-24 01:24:00,63.0,63.0,-100.00,NNE,24,3.0,5.0,100,0.00,,,0.61,0.000000,,2013-07-24 06:24:00,
2013-07-24 01:34:00,63.0,63.0,-100.00,NNE,24,3.0,5.0,100,0.00,,,0.61,0.000000,,2013-07-24 06:34:00,
2013-07-24 01:43:00,63.0,63.0,-100.00,NNE,24,3.0,5.0,100,0.00,,,0.61,0.000000,,2013-07-24 06:43:00,
2013-07-24 01:53:00,63.0,63.0,-100.00,NNE,24,3.0,5.0,100,0.00,,,0.61,0.000000,,2013-07-24 06:53:00,
2013-07-24 02:22:00,62.0,62.0,-100.00,NNE,14,5.0,6.0,100,0.00,,,0.61,0.000000,,2013-07-24 07:22:00,
2013-07-24 02:32:00,62.0,62.0,-100.00,NNE,14,5.0,6.0,100,0.00,,,0.61,0.000000,,2013-07-24 07:32:00,
2013-07-24 02:43:00,62.0,62.0,-100.00,NNE,14,5.0,6.0,100,0.00,,,0.61,0.000000,,2013-07-24 07:43:00,
2013-07-24 02:52:00,62.0,62.0,-100.00,NNE,14,5.0,6.0,100,0.00,,,0.61,0.000000,,2013-07-24 07:52:00,
2013-07-24 03:22:00,62.0,62.0,-100.00,NNE,29,5.0,7.0,100,0.00,,,0.61,0.000000,,2013-07-24 08:22:00,
2013-07-24 03:32:00,62.0,62.0,-100.00,NNE,29,5.0,7.0,100,0.00,,,0.61,0.000000,,2013-07-24 08:32:00,
2013-07-24 03:42:00,62.0,62.0,-100.00,NNE,29,5.0,7.0,100,0.00,,,0.61,0.000000,,2013-07-24 08:42:00,
2013-07-24 03:52:00,62.0,62.0,-100.00,NNE,29,5.0,7.0,100,0.00,,,0.61,0.000000,,2013-07-24 08:52:00,
2013-07-24 04:22:00,60.0,60.0,-100.00,North,350,1.0,6.0,100,0.00,,,0.61,0.000000,,2013-07-24 09:22:00,
2013-07-24 04:32:00,60.0,60.0,-100.00,North,350,1.0,6.0,100,0.00,,,0.61,0.000000,,2013-07-24 09:32:00,
2013-07-24 04:43:00,60.0,60.0,-100.00,North,350,1.0,6.0,100,0.00,,,0.61,0.000000,,2013-07-24 09:43:00,
2013-07-24 04:53:00,60.0,60.0,-100.00,North,350,1.0,6.0,100,0.00,,,0.61,0.000000,,2013-07-24 09:53:00,
2013-07-24 05:22:00,57.0,57.0,-100.00,North,1,2.0,3.0,100,0.00,,,0.61,0.000000,,2013-07-24 10:22:00,
2013-07-24 05:33:00,57.0,57.0,-100.00,North,1,2.0,3.0,100,0.00,,,0.61,0.000000,,2013-07-24 10:33:00,
2013-07-24 05:43:00,57.0,57.0,-100.00,North,1,2.0,3.0,100,0.00,,,0.61,0.000000,,2013-07-24 10:43:00,
2013-07-24 05:53:00,57.0,57.0,-100.00,North,1,2.0,3.0,100,0.00,,,0.61,0.000000,,2013-07-24 10:53:00,
2013-07-24 06:22:00,57.0,57.0,-100.00,NNW,348,0.0,4.0,100,0.00,,,0.27,0.000000,,2013-07-24 11:22:00,
2013-07-24 06:32:00,57.0,57.0,-100.00,NNW,348,0.0,4.0,100,0.00,,,0.27,0.000000,,2013-07-24 11:32:00,
2013-07-24 06:43:00,57.0,57.0,-100.00,NNW,348,0.0,4.0,100,0.00,,,0.27,0.000000,,2013-07-24 11:43:00,
2013-07-24 06:52:00,57.0,57.0,-100.00,NNW,348,0.0,4.0,100,0.00,,,0.27,0.000000,,2013-07-24 11:52:00,
2013-07-24 07:22:00,57.0,57.0,-100.00,North,355,3.0,5.0,100,0.00,,,0.17,0.000000,,2013-07-24 12:22:00,
2013-07-24 07:32:00,57.0,57.0,-100.00,North,355,3.0,5.0,100,0.00,,,0.17,0.000000,,2013-07-24 12:32:00,
2013-07-24 07:42:00,57.0,57.0,-100.00,North,355,3.0,5.0,100,0.00,,,0.17,0.000000,,2013-07-24 12:42:00,
2013-07-24 07:52:00,57.0,57.0,-100.00,North,355,3.0,5.0,100,0.00,,,0.17,0.000000,,2013-07-24 12:52:00,
2013-07-24 08:32:00,64.0,64.0,-100.00,NNW,339,1.0,4.0,100,0.00,,,0.09,0.000000,,2013-07-24 13:32:00,
2013-07-24 08:43:00,64.0,64.0,-100.00,NNW,339,1.0,4.0,100,0.00,,,0.09,0.000000,,2013-07-24 13:43:00,
2013-07-24 08:53:00,64.0,64.0,-100.00,NNW,339,1.0,4.0,100,0.00,,,0.09,0.000000,,2013-07-24 13:53:00,
2013-07-24 09:22:00,70.0,70.0,-100.00,ENE,57,1.0,6.0,99,0.00,,,0.00,0.000000,,2013-07-24 14:22:00,
2013-07-24 09:32:00,70.0,70.0,-100.00,ENE,57,1.0,6.0,99,0.00,,,0.00,0.000000,,2013-07-24 14:32:00,
2013-07-24 09:43:00,70.0,70.0,-100.00,ENE,57,1.0,6.0,99,0.00,,,0.00,0.000000,,2013-07-24 14:43:00,
2013-07-24 09:55:00,70.0,70.0,-100.00,ENE,57,1.0,6.0,99,0.00,,,0.00,0.000000,,2013-07-24 14:55:00,
2013-07-24 10:22:00,74.0,66.0,-100.00,SSW,197,3.0,7.0,77,0.00,,,0.00,0.000000,,2013-07-24 15:22:00,
2013-07-24 10:33:00,74.0,66.0,-100.00,SSW,197,3.0,7.0,77,0.00,,,0.00,0.000000,,2013-07-24 15:33:00,
2013-07-24 10:43:00,74.0,66.0,-100.00,SSW,197,3.0,7.0,77,0.00,,,0.00,0.000000,,2013-07-24 15:43:00,
2013-07-24 10:52:00,74.0,66.0,-100.00,SSW,197,3.0,7.0,77,0.00,,,0.00,0.000000,,2013-07-24 15:52:00,
2013-07-24 11:22:00,77.0,65.0,-100.00,SE,146,3.0,9.0,67,0.00,,,0.00,0.000000,,2013-07-24 16:22:00,
2013-07-24 11:32:00,77.0,65.0,-100.00,SE,146,3.0,9.0,67,0.00,,,0.00,0.000000,,2013-07-24 16:32:00,
2013-07-24 11:43:00,77.0,65.0,-100.00,SE,146,3.0,9.0,67,0.00,,,0.00,0.000000,,2013-07-24 16:43:00,
2013-07-24 11:53:00,77.0,65.0,-100.00,SE,146,3.0,9.0,67,0.00,,,0.00,0.000000,,2013-07-24 16:53:00,
2013-07-24 12:22:00,79.0,64.0,-100.00,North,6,4.0,9.0,60,0.00,,,0.00,0.000000,,2013-07-24 17:22:00,
2013-07-24 12:33:00,79.0,64.0,-100.00,North,6,4.0,9.0,60,0.00,,,0.00,0.000000,,2013-07-24 17:33:00,
2013-07-24 12:43:00,79.0,64.0,-100.00,North,6,4.0,9.0,60,0.00,,,0.00,0.000000,,2013-07-24 17:43:00,
2013-07-24 12:53:00,79.0,64.0,-100.00,North,6,4.0,9.0,60,0.00,,,0.00,0.000000,,2013-07-24 17:53:00,
2013-07-24 13:22:00,81.0,64.0,-100.00,North,8,4.0,11.0,57,0.00,,,0.00,0.000000,,2013-07-24 18:22:00,
2013-07-24 13:33:00,81.0,64.0,-100.00,North,8,4.0,11.0,57,0.00,,,0.00,0.000000,,2013-07-24 18:33:00,
2013-07-24 13:43:00,81.0,64.0,-100.00,North,8,4.0,11.0,57,0.00,,,0.00,0.000000,,2013-07-24 18:43:00,
2013-07-24 13:52:00,81.0,64.0,-100.00,North,8,4.0,11.0,57,0.00,,,0.00,0.000000,,2013-07-24 18:52:00,
2013-07-24 14:53:00,82.0,65.0,-100.00,NE,49,6.0,10.0,57,0.00,,,0.00,0.000000,,2013-07-24 19:53:00,
2013-07-24 15:23:00,84.0,66.0,-100.00,NNE,20,5.0,12.0,54,0.00,,,0.00,0.000000,,2013-07-24 20:23:00,
2013-07-24 15:32:00,84.0,66.0,-100.00,NNE,20,5.0,12.0,54,0.00,,,0.00,0.000000,,2013-07-24 20:32:00,
2013-07-24 15:43:00,84.0,66.0,-100.00,NNE,20,5.0,12.0,54,0.00,,,0.00,0.000000,,2013-07-24 20:43:00,
2013-07-24 15:52:00,84.0,66.0,-100.00,NNE,20,5.0,12.0,54,0.00,,,0.00,0.000000,,2013-07-24 20:52:00,
2013-07-24 16:22:00,83.0,64.0,-100.00,NE,46,5.0,9.0,53,0.00,,,0.00,0.000000,,2013-07-24 21:22:00,
2013-07-24 16:32:00,83.0,64.0,-100.00,NE,46,5.0,9.0,53,0.00,,,0.00,0.000000,,2013-07-24 21:32:00,
2013-07-24 16:43:00,83.0,64.0,-100.00,NE,46,5.0,9.0,53,0.00,,,0.00,0.000000,,2013-07-24 21:43:00,
2013-07-24 16:52:00,83.0,64.0,-100.00,NE,46,5.0,9.0,53,0.00,,,0.00,0.000000,,2013-07-24 21:52:00,
2013-07-24 17:22:00,84.0,66.0,-100.00,NE,44,5.0,10.0,54,0.00,,,0.00,0.000000,,2013-07-24 22:22:00,
2013-07-24 17:32:00,84.0,66.0,-100.00,NE,44,5.0,10.0,54,0.00,,,0.00,0.000000,,2013-07-24 22:32:00,
2013-07-24 17:43:00,84.0,66.0,-100.00,NE,44,5.0,10.0,54,0.00,,,0.00,0.000000,,2013-07-24 22:43:00,
2013-07-24 17:53:00,84.0,66.0,-100.00,NE,44,5.0,10.0,54,0.00,,,0.00,0.000000,,2013-07-24 22:53:00,
2013-07-24 18:22:00,81.0,65.0,-100.00,ENE,76,6.0,10.0,58,0.00,,,0.00,0.000000,,2013-07-24 23:22:00,
2013-07-24 18:32:00,81.0,65.0,-100.00,ENE,76,6.0,10.0,58,0.00,,,0.00,0.000000,,2013-07-24 23:32:00,
2013-07-24 18:43:00,81.0,65.0,-100.00,ENE,76,6.0,10.0,58,0.00,,,0.00,0.000000,,2013-07-24 23:43:00,
2013-07-24 18:52:00,81.0,65.0,-100.00,ENE,76,6.0,10.0,58,0.00,,,0.00,0.000000,,2013-07-24 23:52:00,
2013-07-24 19:22:00,81.0,66.0,-100.00,East,94,5.0,8.0,61,0.00,,,0.00,0.000000,,2013-07-25 00:22:00,
2013-07-24 19:33:00,81.0,66.0,-100.00,East,94,5.0,8.0,61,0.00,,,0.00,0.000000,,2013-07-25 00:33:00,
2013-07-24 19:43:00,81.0,66.0,-100.00,East,94,5.0,8.0,61,0.00,,,0.00,0.000000,,2013-07-25 00:43:00,
2013-07-24 19:52:00,81.0,66.0,-100.00,East,94,5.0,8.0,61,0.00,,,0.00,0.000000,,2013-07-25 00:52:00,
2013-07-24 20:22:00,78.0,69.0,-100.00,ESE,115,4.0,9.0,75,0.00,,,0.00,0.000000,,2013-07-25 01:22:00,
2013-07-24 20:32:00,78.0,69.0,-100.00,ESE,115,4.0,9.0,75,0.00,,,0.00,0.000000,,2013-07-25 01:32:00,
2013-07-24 20:43:00,78.0,69.0,-100.00,ESE,115,4.0,9.0,75,0.00,,,0.00,0.000000,,2013-07-25 01:43:00,
2013-07-24 20:53:00,78.0,69.0,-100.00,ESE,115,4.0,9.0,75,0.00,,,0.00,0.000000,,2013-07-25 01:53:00,
2013-07-24 21:22:00,73.0,71.0,-100.00,East,99,5.0,8.0,93,0.00,,,0.00,0.000000,,2013-07-25 02:22:00,
2013-07-24 21:33:00,73.0,71.0,-100.00,East,99,5.0,8.0,93,0.00,,,0.00,0.000000,,2013-07-25 02:33:00,
2013-07-24 21:43:00,73.0,71.0,-100.00,East,99,5.0,8.0,93,0.00,,,0.00,0.000000,,2013-07-25 02:43:00,
2013-07-24 21:52:00,73.0,71.0,-100.00,East,99,5.0,8.0,93,0.00,,,0.00,0.000000,,2013-07-25 02:52:00,
2013-07-24 22:24:00,70.0,70.0,-100.00,South,171,5.0,7.0,100,0.00,,,0.00,0.000000,,2013-07-25 03:24:00,
2013-07-24 22:37:00,70.0,70.0,-100.00,South,171,5.0,7.0,100,0.00,,,0.00,0.000000,,2013-07-25 03:37:00,
2013-07-24 22:44:00,70.0,70.0,-100.00,South,171,5.0,7.0,100,0.00,,,0.00,0.000000,,2013-07-25 03:44:00,
2013-07-24 22:52:00,70.0,70.0,-100.00,South,171,5.0,7.0,100,0.00,,,0.00,0.000000,,2013-07-25 03:52:00,
2013-07-24 23:22:00,70.0,69.0,-100.00,ESE,104,4.0,7.0,98,0.00,,,-99.99,0.000000,,2013-07-25 04:22:00,
2013-07-24 23:32:00,70.0,69.0,-100.00,ESE,104,4.0,7.0,98,0.00,,,-99.99,0.000000,,2013-07-25 04:32:00,
2013-07-24 23:43:00,70.0,69.0,-100.00,ESE,104,4.0,7.0,98,0.00,,,-99.99,0.000000,,2013-07-25 04:43:00,
2013-07-24 23:53:00,70.0,69.0,-100.00,ESE,104,4.0,7.0,98,0.00,,,-99.99,0.000000,,2013-07-25 04:53:00,